Regional Weather Roundup
Issued by NWS

Home | Current Version | Previous Version | Graphics & Text | Print | Product List | Glossary On
Versions: 1 2 3 4 5 6 7 8 9 10 11 12 13 14 15 16 17 18 19 20 21 22 23 24 25 26 27 28 29 30 31 32 33 34 35 36 37 38 39 40 41 42 43 44 45 46 47 48 49 50
860
ASUS45 KBOI 300610
RWRID

IDAHO REGIONAL WEATHER ROUNDUP
NATIONAL WEATHER SERVICE BOISE ID
1200 AM MDT SAT JUL 30 2016

NOTE: "FAIR" INDICATES FEW OR NO CLOUDS BELOW 12000 FEET
WITH NO SIGNIFICANT WEATHER AND/OR OBSTRUCTIONS TO VISIBILITY

IDZ012-014-300700-
SOUTHWEST IDAHO


CITY           SKY/WX    TMP DP  RH WIND       PRES   REMARKS
BOISE          CLEAR     81  38  21 SE7       29.81S
CALDWELL       CLEAR     77  53  43 SW3       29.79S
MOUNTAIN HOME  CLEAR     82  37  19 N7        29.82F
$$

IDZ016-017-300700-
SOUTHCENTRAL IDAHO


CITY           SKY/WX    TMP DP  RH WIND       PRES   REMARKS
BURLEY         CLEAR     66  50  56 SW7       29.92S
JEROME         CLEAR     77  42  28 SE6       29.92S
TWIN FALLS     CLEAR     80  38  22 SW8       29.93F
$$

IDZ019>023-300700-
SOUTHEAST IDAHO


CITY           SKY/WX    TMP DP  RH WIND       PRES   REMARKS
IDAHO FALLS    CLEAR     78  39  24 S9        29.94F
POCATELLO      CLEAR     83  37  19 S14       29.93F
REXBURG        CLEAR     66  46  48 CALM      29.96S
$$

IDZ006-010-011-018-031-032-300700-
CENTRAL IDAHO MOUNTAINS


CITY           SKY/WX    TMP DP  RH WIND       PRES   REMARKS
MCCALL         CLEAR     65  46  50 CALM      30.02R
HAILEY         CLEAR     66  39  37 NW12      30.03R
STANLEY          N/A     51  30  44 SE5       30.15S
SALMON         CLEAR     72  41  33 CALM      29.90S
CHALLIS        CLEAR     71  34  25 CALM      29.99R
$$

IDZ002-004-006-007-026-300700-
NORTHERN IDAHO


CITY           SKY/WX    TMP DP  RH WIND       PRES   REMARKS
LEWISTON       CLEAR     85  46  25 S7        29.74S
LOWELL           N/A     69  58  67 CALM      29.81S
COEUR D`ALENE  CLEAR     73  57  56 CALM      29.77S
MULLAN PASS    CLEAR     71  40  32 W3        30.07F
$$




USA.gov is the U.S. government's official web portal to all federal, state and local government web resources and services.